Regional Weather Roundup
Issued by NWS

Home | Current Version | Previous Version | Graphics & Text | Print | Product List | Glossary On
Versions: 1 2 3 4 5 6 7 8 9 10 11 12 13 14 15 16 17 18 19 20 21 22 23 24 25 26 27
000
ASUS45 KBOI 291210
RWRID

IDAHO REGIONAL WEATHER ROUNDUP
NATIONAL WEATHER SERVICE BOISE ID
600 AM MDT FRI JUL 29 2016

NOTE: "FAIR" INDICATES FEW OR NO CLOUDS BELOW 12000 FEET
WITH NO SIGNIFICANT WEATHER AND/OR OBSTRUCTIONS TO VISIBILITY

IDZ012-014-291300-
SOUTHWEST IDAHO


CITY           SKY/WX    TMP DP  RH WIND       PRES   REMARKS
BOISE          CLEAR     69  41  36 SE7       29.98R
CALDWELL       CLEAR     65  53  65 CALM      29.97R
MOUNTAIN HOME  CLEAR     70  41  35 NW10      29.97S
$$

IDZ016-017-291300-
SOUTHCENTRAL IDAHO


CITY           SKY/WX    TMP DP  RH WIND       PRES   REMARKS
BURLEY         CLEAR     59  45  59 S3        30.05R
JEROME         CLEAR     63  40  42 SE5       30.04S
TWIN FALLS     CLEAR     69  34  27 S12       30.05R
$$

IDZ019>023-291300-
SOUTHEAST IDAHO


CITY           SKY/WX    TMP DP  RH WIND       PRES   REMARKS
IDAHO FALLS    CLEAR     50  43  77 N8        30.08S
POCATELLO      CLEAR     61  34  36 SW12      30.07R
REXBURG        CLEAR     52  45  77 NE5       30.10R
$$

IDZ006-010-011-018-031-032-291300-
CENTRAL IDAHO MOUNTAINS


CITY           SKY/WX    TMP DP  RH WIND       PRES   REMARKS
MCCALL         CLEAR     54  42  64 NE3       30.15S
HAILEY         CLEAR     57  37  47 NW9       30.16S
STANLEY          N/A     41  32  70 CALM      30.27S
SALMON         CLEAR     54  43  66 CALM      30.09S
CHALLIS        CLEAR     54  37  52 CALM      30.15R
$$

IDZ002-004-006-007-026-291300-
NORTHERN IDAHO


CITY           SKY/WX    TMP DP  RH WIND       PRES   REMARKS
LEWISTON       CLEAR     72  53  51 NE3       29.95R
LOWELL           N/A     60  56  86 NW3       30.03R
COEUR D`ALENE  CLEAR     63  52  67 E6        29.99S
MULLAN PASS    CLEAR     64  39  39 CALM      30.23S
$$




USA.gov is the U.S. government's official web portal to all federal, state and local government web resources and services.